Погода в Черехе

Россия / Псковская область     57°44′57″N   28°22′11″E
темп.,
°C
ветер,
м/с
пор.,
м/с
влажн.,
%
обл.,
%
осадки,
мм/ч
давл.,
гПа
погр.,
м
11 мая, вт
вт1100:00+12ю51475100 0.0 1023421
03:00+10ююв41385100 0.0 1024307
06:00+10ююв4118745 0.0 1024278
09:00+14ю51066100 0.0 1024469
12:00+18ю685271 0.0 1024925
15:00+21ю574230 0.0 10231259
18:00+21ююв47505 0.0 10221129
21:00+14юв397711 0.0 1022169
12 мая, ср
ср1200:00+11юв39760 0.0 1023153
03:00+9юв37812 0.0 1023117
06:00+9юв27845 0.0 1023158
09:00+16ююв36671 0.0 1023398
12:00+21юв57560 0.0 10221302
15:00+22юв5850100 0.0 10212138
18:00+21юв47540 0.0 10201699
21:00+15юв11731 0.0 101911
13 мая, чт
чт1300:00+13св238475 0.0 101747
03:00+14св2687100 0.1 1014151
06:00+13вюв5119354 0.3 1014694
09:00+14юв69670 0.4 1015874
12:00+18юв61053100 0.0 10141891
15:00+16юв5960100 0.2 10131529
18:00+17юв4756100 0.1 10111620
21:00+12вюв3687100 0.9 1011141
14 мая, пт
пт1400:00+9юв35955 0.0 1011112
03:00+7юв24940 0.0 101181
06:00+8вюв3893100 0.0 1011215
09:00+11вюв41085100 0.1 1010568
12:00+12юв51179100 0.0 1010792
15:00+14вюв497695 0.2 1010873
18:00+13вюв3787100 0.2 1009279
21:00+11в269613 0.4 1008134
15 мая, сб
сб1500:00+10в2297100 0.0 100738
03:00+10всв2297100 0.0 100621
06:00+11св2297100 0.0 100459
09:00+13ссз1195100 0.4 1004118
12:00+17с1281100 0.1 1004653
15:00+17сз227882 0.5 1003616
18:00+17сз3582100 1.4 1003548
21:00+13з2694100 2.8 1003163